Regional Weather Roundup
Issued by NWS

Home | Current Version | Previous Version | Graphics & Text | Print | Product List | Glossary On
Versions: 1 2 3 4 5 6 7 8 9 10 11 12 13 14 15 16 17 18 19 20 21 22 23 24 25 26 27 28 29 30 31 32 33 34 35 36 37 38 39 40 41 42 43 44 45 46 47 48 49 50
000
ASUS43 KOAX 050810
RWRNE

WEATHER ROUNDUP FOR NEBRASKA
NATIONAL WEATHER SERVICE OMAHA NE
300 AM CDT WED AUG 05 2015

NOTES: SATELLITE DATA IS BEING USED TO AUGMENT CLOUD COVER ABOVE
       12000 FEET.
       "FAIR" INDICATES FEW OR NO CLOUDS BELOW 12,000 FEET WITH NO
       SIGNIFICANT WEATHER AND/OR OBSTRUCTIONS TO VISIBILITY.

  * THESE STATIONS DO NOT REPORT WEATHER SUCH AS RAIN...SNOW OR FOG.

NEZ001>004-019>022-054>056-050900-
NEBRASKA PANHANDLE

CITY           SKY/WX    TMP DP  RH WIND       PRES   REMARKS
SCOTTSBLUFF    CLEAR     61  60  97 SE5       30.07F
ALLIANCE       PTCLDY    58  56  93 S6        30.06F
CHADRON        PTCLDY    62  59  90 S5        30.02F
KIMBALL        CLEAR     57  54  91 W5        30.11F
SIDNEY         CLEAR     54  53  97 NW8       30.10F
$$

NEZ057>060-069>072-079>082-050900-
SOUTHWEST NEBRASKA

CITY           SKY/WX    TMP DP  RH WIND       PRES   REMARKS
NORTH PLATTE   CLOUDY    60  59  96 CALM      30.03R FOG
IMPERIAL       CLEAR     61  58  90 CALM      30.04S
LEXINGTON      CLOUDY    65  64  96 CALM      30.01S FOG
MCCOOK         PTCLDY    60  59  96 CALM      30.00F
OGALLALA       CLEAR     60  60  99 W5        30.04F FOG
$$

NEZ005>010-023>029-035>040-094-050900-
NORTH CENTRAL NEBRASKA

CITY           SKY/WX    TMP DP  RH WIND       PRES   REMARKS
AINSWORTH      CLOUDY    65  65  98 CALM      30.01S
BROKEN BOW     CLOUDY    66  63  90 S3        30.01F FOG
O`NEILL        PTCLDY    65  64  96 S3        30.01R
ORD            CLOUDY    64  63  96 CALM      30.00R
THEDFORD       FOG       59  58  98 CALM      30.03S VSB 1/2
$$

NEZ041-046>049-061>064-073>077-083>087-050900-
SOUTH CENTRAL NEBRASKA

CITY           SKY/WX    TMP DP  RH WIND       PRES   REMARKS
GRAND ISLAND   CLOUDY    65  64  97 CALM      29.98F
AURORA         CLOUDY    67  67 100 CALM      29.97F
HASTINGS       CLOUDY    66  64  93 E5        29.98F
HEBRON         LGT RAIN  67  64  87 CALM      29.98R
HOLDREGE       PTCLDY    62  61  96 N5        30.00R FOG
KEARNEY *      MOCLDY    64  61  88 CALM      29.99F
YORK           LGT RAIN  66  66 100 E3        29.98F
$$

NEZ011>018-030>034-042>045-050900-
NORTHEAST NEBRASKA

CITY           SKY/WX    TMP DP  RH WIND       PRES   REMARKS
NORFOLK        CLOUDY    68  63  84 E8        29.99S
ALBION         CLOUDY    67  64  90 CALM      30.00R
BLAIR          MOCLDY    65  63  91 E6        29.99S
COLUMBUS *     CLOUDY    68  63  83 E6        29.99R
FREMONT        CLOUDY    68  65  90 E6        29.99S
TEKAMAH        MOCLDY    66  64  93 CALM      29.99R
WAYNE          CLOUDY    66  64  94 CALM      29.99S
$$

NEZ050>053-065>068-078-088>093-050900-
SOUTHEAST NEBRASKA

CITY           SKY/WX    TMP DP  RH WIND       PRES   REMARKS
LINCOLN        CLOUDY    73  70  90 SE8       29.97F
OMAHA EPPLEY   MOCLDY    68  65  90 SE6       29.99R
BEATRICE       CLOUDY    70  69  96 SE3       29.97S
FALLS CITY     CLOUDY    69  68  96 E6        29.98S FOG
NEBRASKA CITY  CLOUDY    69  68  98 SE5       30.00R
PLATTSMOUTH    MOCLDY    69  67  95 SE6       29.99S
$$

NEZ044-045-051>053-067-050900-
OMAHA AREA

CITY           SKY/WX    TMP DP  RH WIND       PRES   REMARKS
OMAHA EPPLEY   MOCLDY    68  65  90 SE6       29.99R
BLAIR          MOCLDY    65  63  91 E6        29.99S
FREMONT        CLOUDY    68  65  90 E6        29.99S
MILLARD        MOCLDY    69  67  92 SE5       29.98S
OFFUTT AFB     MOCLDY    67  66  97 E8        29.98R
PLATTSMOUTH    MOCLDY    69  67  95 SE6       29.99S
WAHOO          CLOUDY    69  67  95 NE5       29.98S
$$



USA.gov is the U.S. government's official web portal to all federal, state and local government web resources and services.